Location: Ferchesar
(52.6477°N, 12.4298°E)
Time: 08:28:41
(UTC+01:00)

Altair - Visible Passes

Search period start: 07 December 2021 00:00
Search period end: 17 December 2021 00:00
Orbit: 1502 x 1682 km, 47.2° (Epoch: 05 December)

Date Brightness Start Highest point End Pass type
(mag) Time Alt. Az. Time Alt. Az. Time Alt. Az.
07 Dec 7.8 17:11:29 10° WSW 17:20:47 63° S 17:29:33 11° E visible
07 Dec 7.8 19:15:48 10° W 19:24:45 54° SSW 19:27:35 41° SSE visible
07 Dec 8.9 21:20:39 10° W 21:25:37 24° WSW 21:25:37 24° WSW visible
08 Dec 7.8 16:46:20 10° WSW 16:55:39 63° S 17:04:41 10° E visible
08 Dec 7.8 18:50:37 10° W 18:59:38 56° SSW 19:03:58 32° SE visible
08 Dec 8.7 20:55:25 10° W 21:02:00 29° SW 21:02:00 29° SW visible
09 Dec 7.9 16:21:12 10° WSW 16:30:31 62° S 16:39:34 10° E visible
09 Dec 7.8 18:25:27 10° W 18:34:32 57° SSW 18:40:25 23° SE visible
09 Dec 8.5 20:30:10 10° W 20:37:53 31° SW 20:38:27 31° SSW visible
10 Dec 7.9 18:00:16 10° W 18:09:26 59° SSW 18:16:57 16° ESE visible
10 Dec 8.5 20:04:56 10° W 20:12:51 33° SW 20:15:00 30° SSW visible
11 Dec 7.9 17:35:06 10° W 17:44:18 60° SSW 17:53:16 10° ESE visible
11 Dec 8.5 19:39:43 10° W 19:47:48 35° SW 19:51:38 25° S visible
11 Dec 9.5 21:47:56 10° WSW 21:49:41 11° WSW 21:49:41 11° WSW visible
12 Dec 7.9 17:09:56 10° W 17:19:11 61° S 17:28:11 10° ESE visible
12 Dec 8.5 19:14:30 10° W 19:22:45 37° SW 19:28:23 19° SSE visible
12 Dec 9.4 21:21:46 10° WSW 21:25:08 12° SW 21:26:28 12° SW visible
13 Dec 8.0 16:44:44 10° W 16:54:03 62° S 17:03:06 10° ESE visible
13 Dec 8.4 18:49:17 10° W 18:57:42 39° SSW 19:05:18 12° SSE visible
13 Dec 9.4 20:55:58 10° W 21:00:10 14° SW 21:03:23 12° SSW visible
14 Dec 8.0 16:19:33 10° W 16:28:56 63° S 16:38:00 10° ESE visible
14 Dec 8.4 18:24:05 10° W 18:32:38 41° SSW 18:40:59 10° SE visible
14 Dec 9.4 20:30:21 10° W 20:35:12 16° SW 20:40:01 10° SSW visible
15 Dec 8.4 17:58:52 10° W 18:07:34 43° SSW 18:16:02 10° SE visible
15 Dec 9.4 20:04:49 10° W 20:10:13 17° SW 20:15:35 10° SSW visible
16 Dec 8.4 17:33:40 10° W 17:42:29 45° SSW 17:51:03 10° SE visible
16 Dec 9.4 19:39:22 10° W 19:45:14 19° SW 19:51:03 10° S visible
